Back to catalog

ELECTRON KICK STAGE R/B

AliveSSO
NORAD 61226·ROCKET BODY·🇺🇸 United States

Launched Sep 20, 2024 from Rocket Lab Launch Complex 1

Loading…

Next Passes (next 24 hours)

TLE

FreshSource: Space-Track

Epoch: Sep 14, 2026, 06:52 UTC

1 61226U 24172G   26257.28634814  .00002916  00000-0  24001-3 0  9999
2 61226  98.0243  10.3211 0046529 170.1307 190.0840 14.99115924108048

Track ELECTRON KICK STAGE R/B in real time with AllMySat

Download on the App Store